Flag for U.S.A. Weather past 2 weeks in Flagstaff, Arizona, U.S.A.

Now
40 °F

Light rain. Mostly cloudy.


Feels Like: 32 °F
Forecast: 36 / 49 °F
Wind: 15 mph from Southwest

Location: Flagstaff Pulliam Airport

Current Time: Apr 25, 2015 at 11:48:57 AM

Latest Report: Apr 25, 2015 at 10:59 AM


Visibility: 10 mi

Pressure: 29.96 "Hg

Humidity: 97%

Dew point: 39 °F

Location of FlagstaffLocation

Historic Weather in Flagstaff — Graph

°F

Flagstaff temperature yesterday

Maximum temperature yesterday: 48 °F (at 10:57 AM)
Minimum temperature yesterday: 30 °F (at 4:57 AM)
Average temperature yesterday: 39 °F

Past Weeks' High & Low Weather Summary

 TemperatureHumidityPressure
High68 °F (Apr 13, 2:57 PM)100% (Apr 17, 4:57 AM)30.10 "Hg (Apr 17, 4:57 AM)
Low16 °F (Apr 16, 4:57 AM)7% (Apr 12, 4:57 PM)29.75 "Hg (Apr 14, 11:57 PM)
Average44 °F42%29.92 "Hg
* Reported Apr 10 9:57 AM — Apr 25 9:57 AM, Flagstaff, Weather by CustomWeather, © 2015

Note: Actual official high and low records may vary slightly from our data, if they occured in-between our weather recording intervals... More about our weather records

Advertising

Flagstaff weather history for previous 24 hours

 ConditionsComfort  
Time TempWeatherWind HumidityBarometerVisibility
9:57 AM
Sat, Apr 25
40 °FLight rain. Mostly cloudy.13 mph97%29.85 "Hg9 mi
9:04 AM40 °FLight rain. Mostly cloudy.9 mph93%29.98 "Hg8 mi
8:57 AM40 °FMostly cloudy.12 mph97%29.85 "Hg10 mi
8:04 AM40 °FCloudy.12 mph93%29.98 "Hg10 mi
7:57 AM40 °FCloudy.13 mph93%29.85 "Hg10 mi
6:57 AM40 °FCloudy.12 mph93%29.85 "Hg10 mi
5:57 AM40 °FMore clouds than sun.12 mph89%29.84 "Hg10 mi
4:57 AM40 °FMostly cloudy.9 mph93%29.84 "Hg10 mi
3:57 AM40 °FMostly cloudy.12 mph97%29.85 "Hg10 mi
2:57 AM40 °FPartly cloudy.10 mph97%29.83 "Hg10 mi
1:57 AM40 °FMostly cloudy.13 mph97%29.85 "Hg10 mi
12:57 AM40 °FOvercast.10 mph97%29.87 "Hg10 mi
11:57 PM
Fri, Apr 24
40 °FPassing clouds.13 mph97%29.86 "Hg10 mi
10:57 PM41 °FMostly cloudy.14 mph93%29.84 "Hg10 mi
9:57 PM41 °FLight rain. Fog.12 mph93%29.86 "Hg6 mi
8:57 PM41 °FLight rain. Mostly cloudy.14 mph96%29.86 "Hg8 mi
7:57 PM41 °FMostly cloudy.8 mph96%29.84 "Hg10 mi
6:57 PM42 °FLight rain. Mostly cloudy.9 mph96%29.87 "Hg10 mi
6:04 PM42 °FLight rain. Mostly cloudy.10 mph96%29.98 "Hg7 mi
5:57 PM42 °FLight rain. Cloudy.13 mph96%29.89 "Hg8 mi
3:57 PM39 °FLight rain. Fog.12 mph96%29.92 "Hg4 mi
2:57 PM43 °FMostly cloudy.16 mph93%29.86 "Hg10 mi
1:57 PM42 °FLight rain. Fog.13 mph96%29.90 "Hg4 mi
12:59 PM39 °FLight rain. Fog.16 mph89%30.00 "Hg5 mi
11:57 AM41 °FLight rain. Fog.14 mph89%29.88 "Hg6 mi
Weather by CustomWeather, © 2015

See weather overviewHow to use our weather pages